CW8504 Weather Reports


Display with metric or nautical units.
time (UTC)temp
F
wind
direction
speed
MPH
gust
MPH
rain 1hr
in
rain 24hr
in
rain mn
in
humidity
%
barometer
mb
20260506062404 38 257 0.0 0.0 0.00 0.00 0.00 31 1016.2
20260506061404 39 257 0.0 0.0 0.00 0.00 0.00 31 1015.9
20260506060904 39 257 0.0 0.0 0.00 0.00 0.00 31 1015.9
20260506060404 39 257 0.0 0.0 0.00 0.00 0.00 31 1015.8
20260506051403 40 248 0.0 0.0 0.00 0.00 0.00 27 1015.6
20260506050905 40 252 0.0 0.0 0.00 0.00 0.00 27 1015.6
20260506050404 40 248 0.0 0.0 0.00 0.00 0.00 26 1015.4
20260506044904 40 238 1.0 5.0 0.00 0.00 0.00 30 1015.1
20260506044404 40 233 0.0 0.0 0.00 0.00 0.00 31 1015.5
20260506043904 40 232 0.0 0.0 0.00 0.00 0.00 33 1015.3
20260506043404 39 232 0.0 0.0 0.00 0.00 0.00 33 1015.5
20260506042404 39 231 0.0 0.0 0.00 0.00 0.00 37 1015.4
20260506041904 39 355 0.0 0.0 0.00 0.00 0.00 36 1015.3
20260506041404 39 34 0.0 0.0 0.00 0.00 0.00 38 1015.4
20260506035404 39 34 0.0 0.0 0.00 0.00 0.00 43 1015.4
20260506034904 39 34 0.0 0.0 0.00 0.00 0.00 44 1015.3
20260506034404 39 34 0.0 0.0 0.00 0.00 0.00 43 1015.5
20260506033904 39 34 0.0 0.0 0.00 0.00 0.00 43 1015.3
20260506033404 39 32 0.0 0.0 0.00 0.00 0.00 43 1015.5
20260506032904 39 32 0.0 0.0 0.00 0.00 0.00 45 1015.6
20260506032404 39 32 3.0 9.0 0.00 0.00 0.00 45 1015.3
20260506031904 39 13 5.0 12.0 0.00 0.00 0.00 44 1015.1
20260506031404 40 38 6.0 12.0 0.00 0.00 0.00 44 1015.2
20260506030907 40 48 5.0 10.0 0.00 0.00 0.00 47 1015.1
20260506030404 41 32 7.0 12.0 0.00 0.00 0.00 46 1015.1
20260506025904 41 0 5.0 13.0 0.00 0.00 0.00 44 1015.0
20260506025404 42 32 5.0 8.0 0.00 0.00 0.00 43 1014.6
20260506024904 42 35 5.0 12.0 0.00 0.00 0.00 43 1014.4
20260506024404 43 43 5.0 10.0 0.00 0.00 0.00 42 1014.1
20260506023904 43 43 1.0 9.0 0.00 0.00 0.00 40 1014.1
20260506023404 44 45 3.0 12.0 0.00 0.00 0.00 39 1013.8
20260506022903 44 36 7.0 15.0 0.00 0.00 0.00 37 1013.5
20260506021911 46 36 7.0 15.0 0.00 0.00 0.00 34 1013.0
20260506021404 46 33 3.0 8.0 0.00 0.00 0.00 31 1013.1
20260506020904 47 46 3.0 6.0 0.00 0.00 0.00 29 1012.6
20260506020404 47 37 4.0 12.0 0.00 0.00 0.00 27 1012.7
20260506015904 48 347 4.0 12.0 0.00 0.00 0.00 26 1012.4
20260506015404 48 35 2.0 10.0 0.00 0.00 0.00 24 1012.3
20260506014405 49 52 0.0 1.0 0.00 0.00 0.00 23 1012.1
20260506013904 50 324 0.0 9.0 0.00 0.00 0.00 22 1011.7
20260506013404 50 23 0.0 5.0 0.00 0.00 0.00 20 1011.6
20260506012905 51 33 1.0 5.0 0.00 0.00 0.00 19 1011.5
20260506012404 51 29 0.0 3.0 0.00 0.00 0.00 18 1011.6
20260506011905 52 54 0.0 7.0 0.00 0.00 0.00 18 1011.5
20260506011407 52 44 1.0 6.0 0.00 0.00 0.00 17 1011.3
20260506004904 54 48 1.0 5.0 0.00 0.00 0.00 15 1010.9
20260506004404 54 50 0.0 3.0 0.00 0.00 0.00 14 1011.0
20260506003904 54 5 0.0 9.0 0.00 0.00 0.00 16 1011.0
20260506003404 54 57 1.0 9.0 0.00 0.00 0.00 14 1011.0
20260506001905 53 32 2.0 10.0 0.00 0.00 0.00 15 1011.1
20260506001404 53 45 1.0 9.0 0.00 0.00 0.00 15 1011.1
20260506000904 53 45 1.0 9.0 0.00 0.00 0.00 13 1011.0
20260506000404 53 19 5.0 12.0 0.00 0.00 0.00 13 1010.9
20260505235903 53 32 4.0 9.0 0.00 0.00 0.00 12 1010.9
20260505235404 54 35 1.0 8.0 0.00 0.00 0.00 14 1010.9
20260505234904 54 50 1.0 5.0 0.00 0.00 0.00 13 1010.9
20260505234403 54 25 2.0 6.0 0.00 0.00 0.00 14 1010.9
20260505233904 55 15 2.0 9.0 0.00 0.00 0.00 13 1010.8
20260505233403 55 19 2.0 12.0 0.00 0.00 0.00 13 1010.8
20260505232404 57 38 5.0 13.0 0.00 0.00 0.00 10 1010.8
20260505231904 59 37 2.0 10.0 0.00 0.00 0.00 10 1010.7
20260505231404 59 243 1.0 14.0 0.00 0.00 0.00 10 1010.6
20260505230904 59 241 7.0 20.0 0.00 0.00 0.00 7 1010.6
20260505225904 60 249 6.0 10.0 0.00 0.00 0.00 7 1010.5
20260505225404 59 279 1.0 5.0 0.00 0.00 0.00 8 1010.4
20260505224904 59 272 7.0 20.0 0.00 0.00 0.00 6 1010.4
20260505223404 59 298 2.0 8.0 0.00 0.00 0.00 12 1010.3
20260505221404 58 202 2.0 17.0 0.00 0.00 0.00 9 1010.3
20260505220903 58 262 2.0 9.0 0.00 0.00 0.00 9 1010.3
20260505220404 58 356 9.0 21.0 0.00 0.00 0.00 11 1010.4
20260505215904 58 59 4.0 12.0 0.00 0.00 0.00 12 1010.1
20260505214904 58 48 3.0 7.0 0.00 0.00 0.00 10 1010.1
20260505214404 58 36 2.0 12.0 0.00 0.00 0.00 13 1010.2
20260505213904 58 248 1.0 12.0 0.00 0.00 0.00 15 1010.2
20260505212903 57 10 0.0 6.0 0.00 0.00 0.00 14 1010.3
20260505212404 56 273 2.0 8.0 0.00 0.00 0.00 19 1010.5
20260505211907 56 307 1.0 9.0 0.00 0.00 0.00 16 1010.3
20260505211404 55 9 1.0 7.0 0.00 0.00 0.00 14 1010.2
20260505210904 56 89 1.0 13.0 0.00 0.00 0.00 14 1010.3
20260505210405 56 358 0.0 3.0 0.00 0.00 0.00 16 1010.3
20260505205404 56 43 0.0 6.0 0.00 0.00 0.00 17 1010.2
20260505204905 56 42 4.0 16.0 0.00 0.00 0.00 15 1010.1
20260505204411 56 28 1.0 5.0 0.00 0.00 0.00 16 1010.2
20260505203904 56 51 3.0 10.0 0.00 0.00 0.00 15 1010.2
20260505203404 57 340 6.0 15.0 0.00 0.00 0.00 14 1010.3
20260505202904 57 238 1.0 5.0 0.00 0.00 0.00 17 1010.4
20260505202404 57 184 1.0 2.0 0.00 0.00 0.00 17 1010.3
20260505201904 57 336 0.0 10.0 0.00 0.00 0.00 13 1010.4
20260505201403 58 28 9.0 17.0 0.00 0.00 0.00 14 1010.3
20260505200405 57 238 2.0 12.0 0.00 0.00 0.00 17 1010.3
20260505195404 58 39 2.0 12.0 0.00 0.00 0.00 14 1010.3
20260505194404 58 242 1.0 9.0 0.00 0.00 0.00 14 1010.4
20260505193911 57 38 4.0 14.0 0.00 0.00 0.00 15 1010.4
20260505192904 57 281 0.0 16.0 0.00 0.00 0.00 16 1010.5
20260505191404 57 39 2.0 7.0 0.00 0.00 0.00 16 1010.6
20260505190405 56 33 2.0 9.0 0.00 0.00 0.00 18 1010.8
20260505185904 55 45 4.0 10.0 0.00 0.00 0.00 17 1010.7
20260505185404 56 56 5.0 9.0 0.00 0.00 0.00 16 1010.7
20260505184904 56 56 5.0 9.0 0.00 0.00 0.00 17 1010.8
20260505184404 56 47 5.0 12.0 0.00 0.00 0.00 17 1010.9
20260505183904 56 51 2.0 7.0 0.00 0.00 0.00 16 1011.0
20260505183404 57 33 3.0 12.0 0.00 0.00 0.00 16 1011.0
20260505182904 57 247 2.0 8.0 0.00 0.00 0.00 17 1011.1
20260505182404 57 31 5.0 12.0 0.00 0.00 0.00 17 1011.0
20260505181904 57 235 3.0 9.0 0.00 0.00 0.00 18 1011.0
20260505181404 57 226 1.0 7.0 0.00 0.00 0.00 18 1011.0
20260505180905 56 248 2.0 12.0 0.00 0.00 0.00 20 1011.1
20260505180404 56 31 3.0 10.0 0.00 0.00 0.00 18 1011.1
20260505175904 56 336 1.0 10.0 0.00 0.00 0.00 15 1011.1
20260505175404 56 351 1.0 6.0 0.00 0.00 0.00 18 1011.3
20260505174904 56 50 2.0 9.0 0.00 0.00 0.00 21 1011.3
20260505174404 56 52 1.0 5.0 0.00 0.00 0.00 20 1011.4
20260505173904 56 349 1.0 5.0 0.00 0.00 0.00 22 1011.5
20260505173403 55 229 0.0 8.0 0.00 0.00 0.00 20 1011.5
20260505172905 55 272 0.0 9.0 0.00 0.00 0.00 20 1011.5
20260505172404 55 44 1.0 9.0 0.00 0.00 0.00 21 1011.6
20260505171904 56 17 2.0 12.0 0.00 0.00 0.00 20 1011.4
20260505171404 56 5 1.0 5.0 0.00 0.00 0.00 21 1011.5
20260505170911 57 30 0.0 3.0 0.00 0.00 0.00 23 1011.5
20260505170404 56 63 2.0 10.0 0.00 0.00 0.00 22 1011.6
20260505165904 57 62 2.0 3.0 0.00 0.00 0.00 24 1011.5
20260505165404 57 304 0.0 2.0 0.00 0.00 0.00 25 1011.6
20260505164910 56 308 0.0 0.0 0.00 0.00 0.00 25 1011.6
20260505163904 55 307 1.0 6.0 0.00 0.00 0.00 25 1011.7
20260505163404 55 232 1.0 5.0 0.00 0.00 0.00 28 1011.7
20260505162404 54 103 0.0 3.0 0.00 0.00 0.00 31 1011.7
20260505161904 54 170 0.0 6.0 0.00 0.00 0.00 30 1011.8
20260505161404 54 121 0.0 3.0 0.00 0.00 0.00 32 1011.8
20260505160904 54 103 0.0 2.0 0.00 0.00 0.00 32 1011.8
20260505160404 54 150 0.0 2.0 0.00 0.00 0.00 32 1011.9
20260505152904 50 223 1.0 6.0 0.00 0.00 0.00 38 1012.2
20260505152404 50 215 0.0 0.0 0.00 0.00 0.00 38 1012.2
20260505151904 49 215 0.0 5.0 0.00 0.00 0.00 40 1012.4
20260505151404 49 218 2.0 6.0 0.00 0.00 0.00 42 1012.4
20260505150904 48 224 2.0 5.0 0.00 0.00 0.00 42 1012.4
20260505124407 43 252 0.0 0.0 0.00 0.00 0.00 53 1012.3
20260505123903 43 252 0.0 0.0 0.00 0.00 0.00 53 1012.2
20260505122904 44 252 0.0 0.0 0.00 0.00 0.00 52 1012.2
20260505121904 44 253 0.0 0.0 0.00 0.00 0.00 51 1012.2
20260505121404 44 252 0.0 0.0 0.00 0.00 0.00 50 1012.3
20260505120903 44 240 0.0 0.0 0.00 0.00 0.00 49 1012.4
20260505120405 44 240 0.0 0.0 0.00 0.00 0.00 49 1012.4
20260505115904 44 161 0.0 0.0 0.00 0.00 0.00 49 1012.4
20260505114904 44 122 0.0 3.0 0.00 0.00 0.00 49 1012.2
20260505114405 45 224 0.0 3.0 0.00 0.00 0.00 48 1012.3
20260505113405 45 248 0.0 0.0 0.00 0.00 0.00 50 1012.4
20260505112904 45 15 0.0 0.0 0.00 0.00 0.00 49 1012.2
20260505112404 45 15 0.0 0.0 0.00 0.00 0.00 49 1012.3
20260505111904 45 15 0.0 3.0 0.00 0.00 0.00 49 1012.3
20260505111404 45 277 0.0 0.0 0.00 0.00 0.00 49 1012.2
20260505110904 45 277 0.0 0.0 0.00 0.00 0.00 49 1012.2
20260505101903 42 5 0.0 0.0 0.00 0.00 0.00 63 1012.2
20260505101405 42 5 0.0 0.0 0.00 0.00 0.00 63 1012.2
20260505100904 42 5 0.0 0.0 0.00 0.00 0.00 64 1012.2
20260505100404 42 5 0.0 0.0 0.00 0.00 0.00 64 1012.2
20260505095904 42 5 0.0 0.0 0.00 0.00 0.00 63 1012.1
20260505095404 42 5 0.0 0.0 0.00 0.00 0.00 63 1012.0
20260505094904 42 5 0.0 0.0 0.00 0.00 0.00 64 1012.1
20260505094404 42 5 0.0 0.0 0.00 0.00 0.00 63 1012.0
20260505093904 42 5 0.0 0.0 0.00 0.00 0.00 64 1012.1
20260505093404 42 5 0.0 0.0 0.00 0.00 0.00 64 1012.0
20260505092904 42 5 0.0 0.0 0.00 0.00 0.00 64 1012.0
20260505092404 42 5 0.0 0.0 0.00 0.00 0.00 64 1011.9
20260505091904 42 5 0.0 0.0 0.00 0.00 0.00 64 1011.9
20260505091404 42 5 0.0 0.0 0.00 0.00 0.00 64 1012.0
20260505090904 41 5 0.0 0.0 0.00 0.00 0.00 64 1012.0
20260505090404 41 5 0.0 0.0 0.00 0.00 0.00 63 1011.9
20260505085904 41 5 0.0 0.0 0.00 0.00 0.00 63 1011.8
20260505085404 41 5 0.0 0.0 0.00 0.00 0.00 63 1011.8
20260505084903 41 5 0.0 0.0 0.00 0.00 0.00 63 1011.9
20260505084404 41 5 0.0 0.0 0.00 0.00 0.00 63 1011.9
20260505083904 41 5 0.0 0.0 0.00 0.00 0.00 64 1011.9
20260505082904 41 5 0.0 0.0 0.00 0.00 0.00 64 1011.9
20260505082404 41 5 0.0 0.0 0.00 0.00 0.00 64 1012.0
20260505081904 41 5 0.0 0.0 0.00 0.00 0.00 63 1012.2
20260505081404 42 5 0.0 0.0 0.00 0.00 0.00 63 1012.1
20260505080904 42 5 0.0 0.0 0.00 0.00 0.00 63 1012.1
20260505080404 42 5 0.0 0.0 0.00 0.00 0.00 63 1012.0
20260505075904 42 5 0.0 0.0 0.00 0.00 0.00 62 1012.0
20260505075404 42 5 0.0 0.0 0.00 0.00 0.00 62 1012.1
20260505074904 42 5 0.0 0.0 0.00 0.00 0.00 61 1012.1
20260505074404 42 5 0.0 0.0 0.00 0.00 0.00 60 1012.1
20260505073404 43 5 0.0 0.0 0.00 0.00 0.00 61 1012.0
20260505072904 43 5 0.0 0.0 0.00 0.00 0.00 61 1012.0
20260505072404 43 5 0.0 0.0 0.00 0.00 0.00 60 1012.0
20260505071904 43 5 0.0 0.0 0.00 0.00 0.00 59 1012.0
20260505071404 43 5 0.0 0.0 0.00 0.00 0.00 59 1012.1
20260505070404 44 5 0.0 0.0 0.00 0.00 0.00 58 1012.1
20260505065904 44 5 0.0 0.0 0.00 0.00 0.00 58 1012.0